Time,TemperatureF,DewpointF,PressureIn,WindDirection,WindDirectionDegrees,WindSpeedMPH,WindSpeedGustMPH,Humidity,HourlyPrecipIn,Conditions,Clouds,dailyrainin,SoftwareType,DateUTC
2013-05-09 00:00:00,52.8,51.1,29.89,North,-999,0.0,0.0,94,0.00,,,-99.99,WeatherLink 5.6,2013-05-09 04:00:00,
2013-05-09 00:30:00,52.6,50.6,29.89,North,-999,0.0,0.0,93,0.00,,,-99.99,WeatherLink 5.6,2013-05-09 04:30:00,
2013-05-09 01:00:00,52.8,50.5,29.89,North,-999,0.0,0.0,92,0.00,,,-99.99,WeatherLink 5.6,2013-05-09 05:00:00,
2013-05-09 01:30:00,53.3,50.4,29.88,North,-999,0.0,0.0,90,0.00,,,-99.99,WeatherLink 5.6,2013-05-09 05:30:00,
2013-05-09 02:00:00,52.8,49.9,29.87,North,-999,0.0,0.0,90,0.00,,,-99.99,WeatherLink 5.6,2013-05-09 06:00:00,
2013-05-09 02:30:00,52.0,49.7,29.87,North,-999,0.0,0.0,92,0.01,,,-99.99,WeatherLink 5.6,2013-05-09 06:30:00,
2013-05-09 03:00:00,52.8,49.9,29.86,North,-999,0.0,0.0,90,0.01,,,-99.99,WeatherLink 5.6,2013-05-09 07:00:00,
2013-05-09 03:30:00,52.9,50.0,29.85,North,-999,0.0,0.0,90,0.00,,,-99.99,WeatherLink 5.6,2013-05-09 07:30:00,
2013-05-09 04:00:00,53.4,49.9,29.85,North,-999,0.0,0.0,88,0.00,,,-99.99,WeatherLink 5.6,2013-05-09 08:00:00,
2013-05-09 04:30:00,53.4,50.2,29.86,North,-999,0.0,0.0,89,0.00,,,-99.99,WeatherLink 5.6,2013-05-09 08:30:00,
2013-05-09 05:00:00,53.4,50.2,29.86,North,-999,0.0,0.0,89,0.00,,,-99.99,WeatherLink 5.6,2013-05-09 09:00:00,
2013-05-09 05:30:00,52.8,49.6,29.88,North,-999,0.0,0.0,89,0.00,,,-99.99,WeatherLink 5.6,2013-05-09 09:30:00,
2013-05-09 06:00:00,53.3,49.8,29.89,North,-999,0.0,0.0,88,0.00,,,-99.99,WeatherLink 5.6,2013-05-09 10:00:00,
2013-05-09 06:30:00,53.9,49.8,29.90,West,270,0.0,9.0,86,0.00,,,-99.99,WeatherLink 5.6,2013-05-09 10:30:00,
2013-05-09 07:00:00,54.8,49.7,29.91,West,270,1.0,9.0,83,0.00,,,-99.99,WeatherLink 5.6,2013-05-09 11:00:00,
2013-05-09 07:30:00,55.6,50.2,29.92,West,270,0.0,7.0,82,0.00,,,-99.99,WeatherLink 5.6,2013-05-09 11:30:00,
2013-05-09 08:00:00,57.6,51.5,29.92,WSW,247,0.0,6.0,80,0.00,,,-99.99,WeatherLink 5.6,2013-05-09 12:00:00,
2013-05-09 08:30:00,58.5,51.3,29.92,West,270,1.0,8.0,77,0.00,,,-99.99,WeatherLink 5.6,2013-05-09 12:30:00,
2013-05-09 09:00:00,59.5,52.6,29.93,West,270,2.0,8.0,78,0.00,,,-99.99,WeatherLink 5.6,2013-05-09 13:00:00,
2013-05-09 09:30:00,60.4,53.9,29.93,WNW,292,1.0,7.0,79,0.00,,,-99.99,WeatherLink 5.6,2013-05-09 13:30:00,
2013-05-09 10:00:00,61.3,55.1,29.93,WNW,292,2.0,12.0,80,0.00,,,-99.99,WeatherLink 5.6,2013-05-09 14:00:00,
2013-05-09 10:30:00,62.7,55.0,29.93,NW,315,2.0,11.0,76,0.00,,,-99.99,WeatherLink 5.6,2013-05-09 14:30:00,
2013-05-09 11:00:00,63.6,55.5,29.93,NW,315,2.0,10.0,75,0.00,,,-99.99,WeatherLink 5.6,2013-05-09 15:00:00,
2013-05-09 11:30:00,64.6,55.0,29.93,WNW,292,4.0,16.0,71,0.00,,,-99.99,WeatherLink 5.6,2013-05-09 15:30:00,
2013-05-09 12:00:00,65.3,55.7,29.93,North,0,3.0,12.0,71,0.00,,,-99.99,WeatherLink 5.6,2013-05-09 16:00:00,
2013-05-09 12:30:00,65.5,55.8,29.93,West,270,3.0,14.0,71,0.00,,,-99.99,WeatherLink 5.6,2013-05-09 16:30:00,
2013-05-09 13:00:00,67.3,54.7,29.92,West,270,2.0,10.0,64,0.00,,,-99.99,WeatherLink 5.6,2013-05-09 17:00:00,
2013-05-09 13:30:00,67.0,54.0,29.92,West,270,2.0,12.0,63,0.00,,,-99.99,WeatherLink 5.6,2013-05-09 17:30:00,
2013-05-09 14:00:00,68.2,55.6,29.92,West,270,2.0,14.0,64,0.00,,,-99.99,WeatherLink 5.6,2013-05-09 18:00:00,
2013-05-09 14:30:00,69.0,55.0,29.90,West,270,4.0,13.0,61,0.00,,,-99.99,WeatherLink 5.6,2013-05-09 18:30:00,
2013-05-09 15:00:00,68.9,53.5,29.90,WNW,292,1.0,13.0,58,0.00,,,-99.99,WeatherLink 5.6,2013-05-09 19:00:00,
2013-05-09 15:30:00,68.6,54.6,29.89,NW,315,0.0,9.0,61,0.00,,,-99.99,WeatherLink 5.6,2013-05-09 19:30:00,
2013-05-09 16:00:00,65.4,56.5,29.89,SW,225,2.0,17.0,73,0.00,,,-99.99,WeatherLink 5.6,2013-05-09 20:00:00,
2013-05-09 16:30:00,64.8,57.4,29.88,South,180,7.0,18.0,77,0.00,,,-99.99,WeatherLink 5.6,2013-05-09 20:30:00,
2013-05-09 17:00:00,65.1,57.7,29.88,South,180,4.0,16.0,77,0.00,,,-99.99,WeatherLink 5.6,2013-05-09 21:00:00,
2013-05-09 17:30:00,63.8,57.9,29.88,South,180,6.0,16.0,81,0.00,,,-99.99,WeatherLink 5.6,2013-05-09 21:30:00,
2013-05-09 18:00:00,63.2,58.3,29.89,South,180,5.0,16.0,84,0.00,,,-99.99,WeatherLink 5.6,2013-05-09 22:00:00,
2013-05-09 18:30:00,62.7,58.1,29.87,South,180,5.0,14.0,85,0.00,,,-99.99,WeatherLink 5.6,2013-05-09 22:30:00,
2013-05-09 19:00:00,62.8,56.9,29.88,South,180,6.0,15.0,81,0.00,,,-99.99,WeatherLink 5.6,2013-05-09 23:00:00,
2013-05-09 19:30:00,63.2,56.9,29.88,South,180,6.0,14.0,80,0.00,,,-99.99,WeatherLink 5.6,2013-05-09 23:30:00,
2013-05-09 20:00:00,62.3,56.7,29.88,South,180,6.0,14.0,82,0.00,,,-99.99,WeatherLink 5.6,2013-05-10 00:00:00,
2013-05-09 20:30:00,62.3,56.4,29.88,South,180,3.0,12.0,81,0.00,,,-99.99,WeatherLink 5.6,2013-05-10 00:30:00,
2013-05-09 21:00:00,63.0,55.7,29.88,South,180,5.0,13.0,77,0.00,,,-99.99,WeatherLink 5.6,2013-05-10 01:00:00,
2013-05-09 21:30:00,62.0,55.4,29.90,South,180,3.0,9.0,79,0.00,,,-99.99,WeatherLink 5.6,2013-05-10 01:30:00,
2013-05-09 22:00:00,62.1,55.2,29.90,South,180,2.0,10.0,78,0.00,,,-99.99,WeatherLink 5.6,2013-05-10 02:00:00,
2013-05-09 22:30:00,61.9,55.3,29.89,South,180,3.0,10.0,79,0.00,,,-99.99,WeatherLink 5.6,2013-05-10 02:30:00,
2013-05-09 23:00:00,61.8,55.2,29.88,South,180,3.0,12.0,79,0.00,,,-99.99,WeatherLink 5.6,2013-05-10 03:00:00,
2013-05-09 23:30:00,61.3,55.4,29.89,South,180,3.0,12.0,81,0.00,,,-99.99,WeatherLink 5.6,2013-05-10 03:30:00,